TimeChST,TemperatureF,Dew PointF,Humidity,Sea Level PressureIn,VisibilityMPH,Wind Direction,Wind SpeedMPH,Gust SpeedMPH,PrecipitationIn,Events,Conditions,WindDirDegrees,DateUTC
12:54 AM,75.0,71.1,87,29.95,10.0,East,5.8,-,N/A,,Partly Cloudy,90,2013-12-06 14:54:00
1:54 AM,73.9,71.1,91,29.93,10.0,ENE,4.6,-,N/A,,Partly Cloudy,70,2013-12-06 15:54:00
2:54 AM,75.9,71.1,85,29.91,10.0,East,6.9,-,N/A,,Clear,80,2013-12-06 16:54:00
3:54 AM,75.9,71.1,85,29.90,10.0,ENE,8.1,-,N/A,,Scattered Clouds,70,2013-12-06 17:54:00
4:54 AM,75.9,71.1,85,29.91,10.0,ENE,9.2,-,N/A,,Partly Cloudy,70,2013-12-06 18:54:00
5:54 AM,75.9,71.1,85,29.91,10.0,East,12.7,-,N/A,,Partly Cloudy,80,2013-12-06 19:54:00
6:54 AM,75.9,71.1,85,29.93,10.0,ENE,9.2,-,N/A,,Partly Cloudy,60,2013-12-06 20:54:00
7:54 AM,80.1,72.0,76,29.96,10.0,ENE,12.7,-,N/A,,Scattered Clouds,70,2013-12-06 21:54:00
8:54 AM,82.0,72.0,71,29.98,10.0,ENE,13.8,-,N/A,,Clear,70,2013-12-06 22:54:00
9:54 AM,84.0,75.9,76,29.98,10.0,East,11.5,-,N/A,,Scattered Clouds,80,2013-12-06 23:54:00
10:54 AM,82.9,77.0,82,29.97,10.0,East,11.5,-,N/A,,Scattered Clouds,80,2013-12-07 00:54:00
11:54 AM,82.4,77.0,84,29.96,10.0,East,12.7,-,N/A,,Scattered Clouds,80,2013-12-07 01:54:00
12:22 PM,84.2,75.2,74,29.88,10.0,East,10.4,-,N/A,,Mostly Cloudy,80,2013-12-07 02:22:00
12:40 PM,84.2,75.2,74,29.87,10.0,ENE,12.7,-,N/A,,Mostly Cloudy,60,2013-12-07 02:40:00
12:54 PM,84.9,75.9,74,29.93,10.0,East,12.7,-,N/A,,Scattered Clouds,80,2013-12-07 02:54:00
1:54 PM,84.0,75.9,76,29.91,10.0,ENE,11.5,23.0,N/A,,Partly Cloudy,70,2013-12-07 03:54:00
2:54 PM,84.0,75.0,74,29.91,10.0,ENE,11.5,-,N/A,,Clear,70,2013-12-07 04:54:00
3:54 PM,84.0,75.0,74,29.91,10.0,East,11.5,-,N/A,,Scattered Clouds,80,2013-12-07 05:54:00
4:54 PM,82.9,73.9,74,29.93,10.0,East,9.2,-,N/A,,Clear,80,2013-12-07 06:54:00
5:54 PM,81.0,73.9,79,29.94,10.0,East,8.1,-,N/A,,Partly Cloudy,80,2013-12-07 07:54:00
6:54 PM,80.1,75.0,85,29.96,10.0,East,6.9,-,N/A,,Partly Cloudy,80,2013-12-07 08:54:00
7:54 PM,79.0,73.9,84,29.96,10.0,ENE,6.9,-,N/A,,Partly Cloudy,70,2013-12-07 09:54:00
8:54 PM,79.0,73.9,84,29.97,10.0,ENE,6.9,-,N/A,,Partly Cloudy,60,2013-12-07 10:54:00
9:54 PM,80.1,73.9,81,29.96,10.0,NE,9.2,-,N/A,,Partly Cloudy,50,2013-12-07 11:54:00
10:54 PM,80.1,73.9,81,29.95,10.0,NE,10.4,-,N/A,,Partly Cloudy,50,2013-12-07 12:54:00
11:54 PM,79.0,73.9,84,29.95,10.0,NE,10.4,-,N/A,,Partly Cloudy,50,2013-12-07 13:54:00